Location: Calgary
(51.0833°N, 114.0833°W)
Time: 06:15:45
(UTC-06:00)

N. Korean satellite - Visible Passes

Search period start: 21 September 2017 00:00
Search period end: 01 October 2017 00:00
Orbit: 461 x 515 km, 97.2° (Epoch: 20 September)

Date Brightness Start Highest point End Pass type
(mag) Time Alt. Az. Time Alt. Az. Time Alt. Az.
21 Sep 8.7 20:09:47 10° SSW 20:13:13 33° W 20:16:38 10° NNW visible
23 Sep 10.2 20:59:29 10° WSW 21:00:42 11° W 21:01:56 10° WNW visible
24 Sep 9.7 20:34:32 10° SW 20:37:16 19° W 20:39:59 10° NW visible
25 Sep 8.7 20:10:31 10° SSW 20:13:54 32° W 20:17:15 10° NNW visible
27 Sep 10.3 21:00:22 10° WSW 21:01:22 11° W 21:02:22 10° WNW visible
28 Sep 9.8 20:35:14 10° SW 20:37:54 19° W 20:40:33 10° NW visible
29 Sep 8.8 20:11:11 10° SSW 20:14:31 31° W 20:17:49 10° NNW visible
30 Sep 7.4 19:47:33 10° S 19:51:11 57° W 19:54:48 10° NNW visible
